Regional Weather Roundup
Issued by NWS Northern Indiana

Home | Current Version | Previous Version | Text Only | Print | Product List | Glossary On
Versions: 1 2 3 4 5 6 7 8 9 10 11 12 13 14 15 16 17 18 19 20 21 22 23 24 25 26 27 28 29 30 31 32 33 34 35 36 37 38 39 40 41 42 43 44 45 46 47 48 49 50
000
ASUS43 KIWX 181810
RWRIWX

KIWX WEATHER ROUNDUP
NATIONAL WEATHER SERVICE NORTHERN INDIANA
100 PM EST SAT NOV 18 2017

NOTE: "FAIR" INDICATES FEW OR NO CLOUDS BELOW 12,000 FEET WITH NO
SIGNIFICANT WEATHER AND/OR OBSTRUCTIONS TO VISIBILITY.

* THESE STATIONS ARE NOT UNDER NWS QUALITY CONTROL. THEY ALSO MAY NOT
  REPORT WEATHER SUCH AS PRECIPITATION OR FOG.

INZ001>027-181900-
NORTHERN INDIANA

CITY           SKY/WX    TMP DP  RH WIND       PRES   REMARKS
GARY*          LGT RAIN  43  43 100 N26G46    29.40F
VALPARAISO     CLOUDY    47  42  83 N13G29    29.37R
6HR MIN TEMP:  46; 6HR MAX TEMP:  48; 6HR PCP:  0.63;

MICHIGAN CITY* LGT RAIN  43  43 100 N16G28    29.38F
LAPORTE*       LGT RAIN  43  41  93 N20G30    29.36F
6HR MIN TEMP:  43; 6HR MAX TEMP:  45;

KNOX*          CLOUDY    45  43  93 N17G26    29.32F
SOUTH BEND     RAIN      42  42 100 N21G26    29.34F FOG
6HR MIN TEMP:  42; 6HR MAX TEMP:  45; 6HR PCP:  0.78;

ELKHART*       RAIN      45  43  93 N9        29.33F
GOSHEN         LGT RAIN  46  43  89 N18       29.28F
6HR MIN TEMP:  45; 6HR MAX TEMP:  47; 6HR PCP:  0.78;

MONTICELLO*    CLOUDY    47  46  96 N15G31    29.28F
6HR MIN TEMP:  47; 6HR MAX TEMP:  52; 6HR PCP:  1.23;

LOGANSPORT*    LGT RAIN  46  46 100 N15G22    29.27R
ROCHESTER*     LGT RAIN  48  48 100 N13       29.27F
WARSAW*        LGT RAIN  46  46 100 N16G22    29.26F
AUBURN*        HVY RAIN  48  46  93 NW8       29.31R
FORT WAYNE     TSTM      54  53  97 NE6       29.27R VSB 1/2
6HR MIN TEMP:  50; 6HR MAX TEMP:  54; 6HR PCP:  2.43;

HUNTINGTON*    RAIN      53  51  95 E8        29.19F
PERU/GRISSOM   LGT RAIN  52  52 100 NW15      29.24R
6HR MIN TEMP:  51; 6HR MAX TEMP:  54; 6HR PCP:  2.29;

MARION*        RAIN     N/A N/A N/A NE3       29.22R
                                      6HR PCP:  0.98;


$$
INZ028>050-181900-
CENTRAL INDIANA

CITY           SKY/WX    TMP DP  RH WIND       PRES   REMARKS
LAFAYETTE      CLOUDY    48  48 100 N21G31    29.27F
6HR MIN TEMP:  48; 6HR MAX TEMP:  56; 6HR PCP:  1.55;

KOKOMO*        RAIN      53  52  96 W8        29.26R
6HR MIN TEMP:  51; 6HR MAX TEMP:  58; 6HR PCP:  1.26;

MUNCIE*        LGT RAIN  62  57  83 S24G38    29.18F
6HR MIN TEMP:  51; 6HR MAX TEMP:  63; 6HR PCP:  0.29;

INDIANAPOLIS   LGT RAIN  63  59  87 SW25G40   29.26F
6HR MIN TEMP:  59; 6HR MAX TEMP:  65; 6HR PCP:  0.16;


$$
MIZ043>046-050>051-056>058-064>065-071>073-077>080-181900-
SOUTHWEST LOWER MICHIGAN

CITY           SKY/WX    TMP DP  RH WIND       PRES   REMARKS
BATTLE CREEK   RAIN      44  43  96 N6        29.36F FOG
6HR MIN TEMP:  44; 6HR MAX TEMP:  45; 6HR PCP:  0.28;

BENTON HARBOR  RAIN      43  39  86 N9G17     29.38F FOG
6HR MIN TEMP:  43; 6HR MAX TEMP:  45; 6HR PCP:  0.32;

COLDWATER*     MIX PCPN  45  45 100 NW6       29.35R
6HR MIN TEMP:  45; 6HR MAX TEMP:  46;

HILLSDALE*     HVY RAIN  45  43  93 NW5       29.30S
HOLLAND        LGT RAIN  41  39  93 N8        29.40F FOG
6HR MIN TEMP:  41; 6HR MAX TEMP:  45; 6HR PCP:  0.16;

GRAND RAPIDS   LGT RAIN  41  41 100 N13       29.38F FOG
6HR MIN TEMP:  41; 6HR MAX TEMP:  44; 6HR PCP:  0.15;

KALAMAZOO      LGT RAIN  43  41  93 N9        29.37F FOG
6HR MIN TEMP:  43; 6HR MAX TEMP:  45; 6HR PCP:  0.29;

STURGIS*       RAIN      45  43  93 N10       29.30F
THREE RIVERS*  HVY RAIN  45  45  99 N6        29.34F
6HR MIN TEMP:  45; 6HR MAX TEMP:  47;


$$
OHZ001>008-015>018-024>025-181900-
NORTHWEST OHIO

CITY           SKY/WX    TMP DP  RH WIND       PRES   REMARKS
WAUSEON*       RAIN      50  50 100 SE9       29.29F
DEFIANCE       TSTM      51  50  96 E6        29.26F FOG
6HR MIN TEMP:  46; 6HR MAX TEMP:  51; 6HR PCP:  0.77;

FINDLAY        LGT RAIN  52  49  89 SE10G18   29.30F FOG
6HR MIN TEMP:  49; 6HR MAX TEMP:  53; 6HR PCP:  0.89;

TOLEDO EXPRESS RAIN      50  50 100 SE6       29.30F FOG
6HR MIN TEMP:  46; 6HR MAX TEMP:  50; 6HR PCP:  0.52;

TOLEDO METCALF TSTM      49  48  97 SE6       29.31F FOG
6HR MIN TEMP:  45; 6HR MAX TEMP:  49; 6HR PCP:  0.34;

LIMA           CLOUDY    51  51 100 SE14      29.27F
6HR MIN TEMP:  48; 6HR MAX TEMP:  52; 6HR PCP:  0.75;


$$
AND FOR LAKE MICHIGAN COASTAL AND OPEN LAKE BUOY OBSERVATIONS

STATION/POSITION TEMP    WIND        PRES    VSBY  WAVE
                 AIR SEA DIR/SP/G                  HT/PER
                 (F)     (DEG/KT/KT) (MB)    (MI)  (FT/S)
MICHIGAN CITY     44     360/ 30/ 33   N/A
BURNS HARBOR      44     360/ 28/ 34  995.3F
SAINT JOSEPH      44      20/ 20/ 29  996.3
SOUTH LAKE BUOY   44 49   10/ 25/ 29  996.8S         6/ 6

$$
&&



USA.gov is the U.S. government's official web portal to all federal, state and local government web resources and services.